SCP
0 0 0 0 0 0 0 0 0 0 0 0 0 0 0 0 0 1 1 1 1 1 1 1 1 1 1 1 2 2 2 2 2 2 2 1 1 1 1 1 1 1 1 1
0 0 0 0 0 0 0 0 0 0 0 0 0 0 0 0 0 1 1 1 1 1 1 1 1 1 1 1 1 2 2 2 2 2 2 2 1 1 1 1 1 1 1 1
0 0 0 0 0 0 0 0 0 0 0 0 0 0 0 0 0 1 1 1 1 1 1 1 1 1 1 1 1 1 1 2 2 2 2 2 2 2 1 1 1 1 1 1
0 0 0 0 0 0 0 0 0 0 0 0 0 0 0 0 0 0 1 1 1 1 1 1 1 1 1 1 1 1 1 1 2 2 2 2 2 2 1 1 1 1 1 1
0 0 0 0 0 0 0 0 0 0 0 0 0 0 0 0 0 0 0 0 0 0 0 0 0 0 1 1 1 1 1 1 1 2 2 2 2 1 1 1 1 1 1 1
0 0 0 0 0 0 0 0 0 0 0 0 0 0 0 0 0 0 0 0 0 0 0 0 0 0 0 0 1 1 1 1 1 1 2 2 1 1 1 1 1 1 0 0
0 0 0 0 0 0 0 0 0 0 0 0 0 0 0 0 0 0 0 0 0 0 0 0 0 0 0 0 0 1 1 1 1 1 1 1 1 1 1 1 0 0 0 0
0 0 0 0 0 0 0 0 0 0 0 0 0 0 0 0 0 0 -0 -0 -0 0 0 0 0 0 0 0 0 0 1 1 1 1 1 1 1 1 0 0 0 0 0 0
0 0 0 0 0 0 0 0 0 0 0 0 0 0 0 0 0 0 0 -0 -0 0 0 0 0 0 0 0 0 0 0 0 1 1 1 1 0 0 0 0 0 0 0 0
0 0 0 0 0 0 0 0 0 0 0 0 0 0 0 0 0 0 0 0 0 0 0 0 0 0 0 0 0 0 0 0 0 0 0 0 0 0 0 0 0 0 0 0
0 0 0 0 0 0 0 0 0 0 0 0 0 0 0 0 0 0 0 0 0 0 0 0 0 0 0 0 0 0 0 0 0 0 0 0 0 0 0 0 0 0 0 0
0 0 0 0 0 0 0 0 0 0 0 0 0 0 0 0 0 0 0 0 0 0 0 0 0 0 0 0 0 0 0 0 0 0 0 0 0 0 0 0 0 0 0 0
0 0 0 0 0 0 0 0 0 0 0 0 0 0 0 0 0 0 0 0 0 0 0 0 0 0 0 0 0 0 0 0 0 0 0 0 0 0 0 0 0 0 0 0
0 0 0 0 0 0 0 0 0 0 0 0 0 0 0 0 0 0 0 0 0 0 0 0 0 0 0 0 0 0 0 0 0 0 0 0 0 0 0 0 0 0 0 0
0 0 0 0 0 0 0 0 0 0 0 0 0 0 0 0 0 0 0 0 0 0 0 0 0 0 0 0 0 0 0 0 0 0 0 0 0 0 0 0 0 0 0 0
0 0 0 0 0 0 0 0 0 0 0 0 0 0 0 0 0 0 0 0 0 0 0 0 0 0 0 0 0 0 0 0 0 0 0 0 0 0 0 0 0 0 0 0
0 0 0 0 0 0 0 0 0 0 0 0 0 0 0 0 0 0 0 0 0 0 0 0 0 0 0 0 0 0 0 0 0 0 0 0 0 0 0 0 0 0 0 0
0 0 0 0 0 0 0 0 0 0 0 0 0 0 0 0 0 0 0 0 0 0 0 0 0 0 0 0 0 0 0 0 0 0 0 0 0 0 0 0 0 0 0 0
0 0 0 0 0 0 0 0 0 0 0 0 0 0 0 0 0 0 0 0 0 0 0 0 0 0 0 0 0 0 0 0 0 0 0 0 0 0 0 0 0 0 0 0
0 0 0 0 0 0 0 0 0 0 0 0 0 0 0 0 0 0 0 0 0 0 0 0 0 0 0 0 0 0 0 0 0 0 0 0 0 0 0 0 0 0 0 0
0 0 0 0 0 0 0 0 0 0 0 0 0 0 0 0 0 0 0 0 0 0 0 0 0 0 0 0 0 0 0 0 0 0 0 0 0 0 0 0 0 0 0 0
0 0 0 0 0 0 0 0 0 0 0 0 0 0 0 0 0 0 0 0 0 0 0 0 0 0 0 0 0 0 0 0 0 0 0 0 0 0 0 0 0 0 0 0
0 0 0 0 0 0 0 0 0 0 0 0 0 0 0 0 0 0 0 0 0 0 0 0 0 0 0 0 0 0 0 0 0 0 0 0 0 0 0 0 0 0 0 0
0 0 0 0 0 0 0 0 0 0 0 0 0 0 0 0 0 0 0 0 0 0 0 0 0 0 0 0 0 0 0 0 0 0 0 0 0 0 0 0 0 0 0 0
0 0 0 0 0 0 0 0 0 0 0 0 0 0 0 0 0 0 0 0 0 0 0 0 0 0 0 0 0 0 0 0 0 0 0 0 0 0 0 0 0 0 0 0
0 0 0 0 0 0 0 0 0 0 0 0 0 0 0 0 0 0 0 0 0 0 0 0 0 0 0 0 0 0 0 0 0 0 0 0 0 0 0 0 0 0 0 0
Wind_Speed
3 4 2 5 5 4 2 2 6 8 6 3 4 5 8 8 4 2 2 3 3 3 0 2 1 3 4 5 7 8 8 8 6 5 5 5 4 4 4 5 7 7 7 8
5 3 6 4 3 3 3 3 5 7 5 2 3 4 5 9 8 5 4 3 2 2 3 2 2 1 2 3 4 5 7 7 6 6 5 3 3 3 3 4 5 6 7 7
2 5 4 2 1 1 2 3 4 5 5 5 4 6 6 6 9 12 11 8 7 5 3 2 2 1 1 2 3 4 5 6 6 6 3 1 1 1 2 3 3 4 5 5
2 4 3 3 2 1 2 3 4 3 2 4 3 3 5 5 8 10 10 9 8 7 5 3 3 2 2 2 2 3 4 6 6 6 6 6 5 5 5 4 3 3 4 5
3 3 3 3 2 1 2 2 2 2 1 2 3 1 6 4 5 6 7 7 6 6 5 5 5 4 3 2 2 3 4 5 5 5 6 6 6 5 3 2 3 3 3 3
3 2 1 1 1 2 1 4 5 5 4 1 2 1 5 1 2 3 4 5 6 6 6 6 5 4 4 3 2 2 3 4 4 4 4 6 6 6 5 5 4 3 2 2
5 6 4 1 3 5 7 6 6 7 5 5 4 2 7 3 2 2 3 5 6 6 6 7 7 7 6 6 4 3 3 4 4 4 5 6 7 8 8 7 6 4 3 2
1 5 4 2 1 1 1 5 5 3 4 5 5 5 5 3 3 3 4 5 5 6 6 7 7 7 7 7 6 5 5 5 4 4 4 5 5 5 4 5 4 4 3 3
5 5 3 2 2 3 3 2 3 5 1 3 6 6 6 3 4 6 6 6 7 6 6 6 6 6 7 7 7 6 5 4 4 3 1 1 3 4 3 4 4 4 4 4
8 4 3 2 3 5 3 6 5 3 1 4 6 5 5 6 8 8 8 8 8 6 5 5 5 5 6 6 6 6 5 4 2 2 1 2 2 3 5 6 6 6 5 5
5 5 3 3 0 1 2 3 5 4 4 4 4 9 7 7 7 8 10 9 7 6 6 5 4 4 4 5 5 5 5 4 3 1 2 3 4 6 7 7 7 6 6 6
3 6 2 5 4 2 3 5 7 4 4 5 3 11 7 7 7 7 9 7 6 6 5 4 4 4 4 5 5 5 5 4 3 3 3 4 5 6 7 7 6 6 6 6
6 6 2 7 7 2 1 3 4 5 4 5 5 11 5 4 6 7 8 8 6 5 4 3 2 3 3 4 4 4 4 3 3 4 4 5 5 6 6 6 6 6 7 6
7 6 7 8 9 6 4 4 5 6 5 6 10 12 12 10 9 9 7 7 6 5 4 3 3 3 3 3 3 3 4 3 2 3 4 4 4 5 5 5 5 6 6 6
5 5 6 7 6 4 6 8 7 9 10 10 11 10 14 10 8 7 6 5 5 5 5 5 4 3 3 2 2 2 3 3 2 3 4 4 4 4 5 5 5 5 6 6
3 4 3 4 6 5 7 11 11 10 8 9 8 12 12 7 4 5 6 6 6 7 7 6 5 4 3 3 2 2 2 2 2 3 3 3 4 5 5 5 5 6 6 5
3 5 4 5 3 2 8 11 9 8 8 10 11 13 6 5 8 8 7 7 8 8 7 7 6 5 5 3 2 1 0 1 2 3 3 4 4 5 5 5 5 6 5 5
7 6 4 2 1 7 12 5 6 7 9 9 8 7 7 9 6 5 6 8 8 8 7 7 6 5 4 3 2 1 1 1 2 3 3 4 5 5 5 5 5 5 4 5
6 8 4 4 4 9 10 7 6 7 9 8 10 9 5 2 1 5 7 9 9 8 7 7 6 5 4 3 3 2 1 1 2 3 3 4 5 5 5 5 5 4 5 5
4 4 5 4 4 8 12 7 2 3 7 8 8 9 5 6 2 8 6 8 9 7 6 6 5 4 4 4 3 3 2 2 2 3 3 4 4 5 5 5 4 4 5 5
2 1 3 6 7 11 11 4 4 4 10 6 7 9 8 10 11 7 3 5 7 7 7 6 6 5 5 4 4 4 3 4 4 3 4 4 5 5 5 4 4 5 6 6
4 4 5 4 5 11 6 4 8 11 6 4 7 8 10 12 10 6 5 6 7 7 7 7 6 6 5 5 5 5 5 4 3 4 5 5 5 5 5 6 5 5 6 6
7 9 7 10 12 10 5 9 9 5 6 7 8 9 10 10 10 9 8 8 8 8 8 7 7 6 5 5 6 6 5 4 5 6 6 5 5 4 5 6 6 5 4 4
6 4 5 7 11 11 10 9 9 9 10 11 10 10 9 11 11 9 8 8 8 8 8 7 7 7 6 6 7 7 5 6 7 7 6 5 5 5 4 4 4 5 5 4
8 4 5 9 11 9 10 10 11 10 9 10 10 9 11 11 11 10 9 9 10 9 8 8 8 9 9 7 7 6 7 8 7 7 6 5 5 5 5 4 3 4 3 4
5 6 6 10 12 9 10 10 9 9 10 11 10 10 10 12 13 11 10 10 10 10 9 8 9 9 8 8 8 7 8 9 9 7 7 5 5 5 5 5 3 2 2 5
Wind_Direction
40 51 300 249 204 202 217 284 295 282 291 311 307 319 334 353 353 293 231 198 198 214 7 54 184 205 204 205 200 198 201 204 191 185 190 201 213 215 219 224 221 215 211 207
28 322 261 249 207 201 225 282 290 296 323 347 319 337 358 25 27 26 37 37 23 28 33 27 18 342 227 222 213 206 206 204 201 200 190 190 188 203 215 217 211 209 208 206
214 263 299 336 27 162 245 218 253 278 325 15 13 350 6 17 30 35 34 33 30 21 9 4 351 329 305 249 223 220 215 209 208 200 174 150 146 176 202 219 215 207 200 202
276 280 337 8 13 101 303 267 249 275 12 325 19 307 322 1 27 29 22 18 14 8 5 350 338 334 302 263 220 211 215 210 208 195 191 191 204 217 220 217 215 209 201 198
297 307 346 357 330 351 266 347 23 13 123 352 1 241 290 353 13 13 6 2 360 355 350 340 336 325 310 296 258 223 214 216 213 203 203 207 222 226 221 226 215 213 203 193
270 300 287 273 26 24 26 50 45 44 63 342 293 267 277 307 321 321 330 335 336 337 337 334 332 329 323 320 312 275 233 221 211 202 206 214 226 234 220 220 212 203 181 170
331 335 337 339 27 12 51 60 13 354 5 263 285 255 244 224 226 251 273 292 306 316 323 327 332 336 333 325 315 297 273 254 228 207 208 213 218 225 219 213 201 188 177 169
264 301 310 346 147 191 70 130 155 231 244 281 310 256 252 218 224 245 257 271 288 297 306 312 318 326 328 325 319 306 288 278 269 237 220 213 213 222 219 199 178 168 162 148
191 248 298 1 19 125 133 136 159 146 230 273 281 293 294 221 245 255 260 265 270 278 290 300 310 320 323 324 319 311 299 292 284 268 244 223 212 190 171 138 125 125 119 115
165 213 281 307 58 38 90 140 97 117 219 277 291 281 253 238 244 252 257 260 264 274 283 294 305 316 319 321 322 327 326 317 313 297 246 152 130 117 111 107 103 100 96 97
145 167 284 359 44 250 108 101 109 123 160 180 271 271 234 224 232 243 254 255 259 268 274 282 295 303 315 331 337 339 340 349 356 15 87 103 102 102 99 97 97 99 96 96
120 125 231 281 283 265 207 181 151 162 223 190 210 268 259 237 247 249 261 266 261 261 266 276 296 316 334 342 345 350 350 6 19 46 84 93 95 97 97 99 102 105 102 98
137 115 47 338 337 324 167 163 158 135 135 172 195 262 282 267 273 263 262 266 263 262 266 277 295 308 319 331 340 348 354 11 39 66 82 89 92 96 102 106 107 106 105 100
118 131 169 207 227 216 227 205 166 147 175 216 224 252 282 280 274 274 267 261 257 251 251 249 261 278 294 315 337 344 355 13 50 82 91 93 98 106 105 106 106 106 107 105
119 181 218 234 240 213 230 238 204 197 205 212 238 242 259 261 254 258 262 259 248 241 233 230 235 252 275 302 331 347 355 17 46 83 96 104 108 106 105 100 96 98 99 103
124 189 202 270 263 244 260 258 241 228 221 225 246 261 253 250 236 246 248 240 238 238 231 226 224 227 240 260 291 339 358 25 84 105 113 116 114 110 107 105 104 100 95 96
155 148 151 257 290 335 272 245 228 224 217 199 221 242 247 226 229 233 232 227 230 232 229 222 216 215 224 236 241 250 310 61 104 119 123 119 116 111 109 111 106 104 102 101
152 142 158 216 152 234 245 240 211 227 246 219 226 240 219 219 230 235 219 215 228 228 223 217 212 214 222 224 222 204 163 118 125 127 128 131 128 120 114 109 105 101 99 99
154 143 144 158 220 267 287 268 207 210 261 231 221 240 235 195 24 287 232 209 216 217 211 209 205 203 206 212 205 171 160 149 145 148 145 142 136 128 122 117 110 102 103 97
80 113 138 160 203 249 250 256 185 145 272 252 211 229 196 134 194 262 244 207 214 212 206 203 195 188 200 212 183 168 187 187 188 175 159 145 136 133 131 125 113 105 110 107
44 89 188 206 226 258 256 259 133 187 245 255 210 215 180 188 214 230 215 206 205 202 201 191 181 190 207 196 172 182 199 211 202 163 143 136 136 136 133 123 115 118 114 107
210 216 223 194 213 255 255 159 190 223 238 241 222 212 201 218 236 236 226 222 204 196 193 182 182 201 205 183 175 191 212 212 170 147 140 138 138 138 134 126 120 120 120 114
212 202 203 200 220 237 230 215 233 235 237 240 228 226 212 221 235 232 226 219 205 197 192 183 185 196 201 191 184 196 209 179 156 147 145 141 133 125 133 136 135 128 126 127
267 225 223 257 263 259 261 260 258 240 233 243 237 232 213 217 229 226 221 211 203 198 193 184 180 191 205 202 199 203 183 165 155 154 152 146 139 132 131 136 144 145 148 144
243 251 248 261 270 282 276 261 258 263 258 257 251 234 221 220 228 220 214 209 203 198 191 182 187 196 205 197 198 194 176 164 161 161 159 154 151 146 143 138 143 156 166 169
230 220 235 261 263 252 259 260 268 272 271 265 257 250 232 217 226 219 214 210 200 197 189 188 195 200 202 192 195 189 179 172 166 167 168 165 159 156 152 144 120 91 153 179